THORAD AGENA D DEB, 42496

Orbit data source: Space-Track

THORAD AGENA D DEB, 42496 is space debris in SSO originally from a launch on Wed, 08 Apr 1970 UTC launched from the Air Force Western Test Range (AFWTR). Debris objects in space refer to the collection of defunct objects orbiting the Earth. Examples of debris include non-operational satellites, rocket bodies, and fragments generated from explosions, collisions, or faulty payload assembly.

Loading next visibility...
Identifier
42496, 1970-025RA
Orbit
SSO
Country
Flag of USUS
Related business
Manufacturer
Unknown
Mission
Spacecraft
Bus & Motor
Unknown
Mass
Unknown
Launch date (UTC)
1970-04-08 (56 years ago)
Launch vehicle
Unknown
Launch site
Air Force Western Test Range (AFWTR)
Object type
Payload
Rocket body
Debris
Shape & HBR
Unknown shape, 0.1 m
Radar Cross Section
Small (<0.1 m²)

Expand to show TLE details & history
Last TLE update: 1 day ago

TLE from 1 day ago
0 THORAD AGENA D DEB
1 42496U 70025RA  25295.15490392  .00000308  00000-0  56227-3 0  9991
2 42496  99.6431 173.6168 0054443 344.5673 167.8072 13.48325452586077
Epoch: 2025-10-22T03:43Z
TLE epoch observation values (Epoch: 2025-10-22T03:43:03.698Z)
Latitude
27.11206°
Longitude
-88.01607°
Altitude
1,121.323 km
Speed
7.275 km/s
True Right ascension
23h 54m 19s
True Declination
26° 58' 46"
Sunlit
Object was in full shadow at epoch
Visualization orbit readout
Latitude
Unknown
Longitude
Unknown
Altitude
Unknown
Speed
Unknown
Apparent Right ascension
Unknown
Apparent Declination
Unknown
Sunlit
N/A
Visualization observer readout
Local Sidereal Time
07:54:39
Azimuth
Unknown
Elevation
Unknown
Doppler factor
Unknown
Orbital elements
Apogee altitude
1,116.308 km
Perigee altitude
1,035.145 km
Semi-major axis
7,453.863 km
Eccentricity
0.00544
Inclination
99.6431°
RAAN
173.6168°
Arg. of periapsis
344.5673°
True anomaly
167.93809°
Mean anomaly
167.8072°
Eccentric anomaly
167.87273°
Mean motion
3.37265 °/min
Orbital period
106.74 mins
BSTAR
0.00056227
Loading maneuver chart data...
Computing Atmospheric mass density...

Documentation

Showing up to 5 results
|